Fort Hood, TX

6:49 PM CDT on October 14, 2019 (GMT -0500)
Killeen-Fort Hood Regional

Weather History for KGRK - August, 2019

Change the Weather History Date:

Monday, August 26, 2019

  Actual Average Record
Temperature  
Mean Temperature 87 °F -  
Max Temperature 98 °F 92 °F 104 °F (1999)
Min Temperature 76 °F 72 °F 69 °F (1997)
Cooling Degree Days 22    
Growing Degree Days 37 (Base 50)    
Moisture  
Dew Point 73 °F    
Average Humidity 66    
Maximum Humidity 92    
Minimum Humidity 39    
Precipitation  
Precipitation 0.00 in - - ()
Sea Level Pressure  
Sea Level Pressure 29.73 in    
Wind  
Wind Speed 11 mph (SSE)    
Max Wind Speed 21 mph    
Max Gust Speed 25 mph    
Visibility 10 miles    
Events      
Averages and records for this station are not official NWS values.
T = Trace of Precipitation, MM = Missing Value Source: NWS Daily Summary

Daily Weather History Graph

Daily Weather History Graph

Search for Another Location

Airport or City:

Astronomy

Aug. 26, 2019 Rise Set
Actual Time 7:03 AM CDT 8:01 PM CDT
Civil Twilight 6:38 AM CDT 8:26 PM CDT
Nautical Twilight 6:09 AM CDT 8:56 PM CDT
Astronomical Twilight 5:39 AM CDT 9:26 PM CDT
Moon 2:44 AM CDT (8/26) 5:12 PM CDT (8/26)
Length of Visible Light 13h 47m
Length of Day
12h 58m
Waning Crescent, 19% of the Moon is Illuminated
Aug 26
Waning Crescent
Aug 30
New
Sep 5
First Quarter
Sep 13
Full
Sep 21
Last Quarter

Hourly Weather History & Observations

Time (CDT) Temp. Heat Index Dew Point Humidity Pressure Visibility Wind Dir Wind Speed Gust Speed Precip Events Conditions
12:58 AM 82.2 °F 89.1 °F 75.0 °F 79% 29.74 in 10.0 mi SSE 11.5 mph - N/A   Clear
1:58 AM 81.0 °F 86.7 °F 74.8 °F 82% 29.74 in 10.0 mi South 9.2 mph - N/A   Clear
2:58 AM 80.1 °F 84.8 °F 74.5 °F 83% 29.75 in 10.0 mi South 11.5 mph - N/A   Clear
3:58 AM 79.0 °F - 74.5 °F 86% 29.74 in 10.0 mi SSE 9.2 mph - N/A   Clear
4:58 AM 78.1 °F - 74.5 °F 89% 29.75 in 9.0 mi SSE 8.1 mph - N/A   Clear
5:58 AM 77.2 °F - 73.9 °F 90% 29.75 in 9.0 mi SSE 8.1 mph - N/A   Clear
6:58 AM 76.6 °F - 74.1 °F 92% 29.75 in 8.0 mi SSE 8.1 mph - N/A   Clear
7:58 AM 77.4 °F - 74.5 °F 91% 29.77 in 10.0 mi SSE 6.9 mph - N/A   Clear
8:58 AM 80.8 °F 86.3 °F 74.7 °F 82% 29.77 in 10.0 mi South 12.7 mph - N/A   Partly Cloudy
9:58 AM 85.1 °F 92.6 °F 73.8 °F 69% 29.76 in 10.0 mi South 11.5 mph - N/A   Clear
10:58 AM 88.9 °F 97.6 °F 73.8 °F 61% 29.76 in 10.0 mi South 12.7 mph - N/A   Clear
11:58 AM 91.4 °F 100.7 °F 73.6 °F 56% 29.75 in 10.0 mi SSE 16.1 mph - N/A   Clear
12:58 PM 93.0 °F 101.3 °F 72.3 °F 51% 29.74 in 10.0 mi South 18.4 mph 25.3 mph N/A   Clear
2:58 PM 96.8 °F 104.4 °F 71.2 °F 43% 29.70 in 10.0 mi SSE 12.7 mph - N/A   Clear
3:58 PM 98.2 °F 106.1 °F 70.9 °F 41% 29.68 in 10.0 mi SSE 16.1 mph - N/A   Clear
4:58 PM 98.4 °F 105.1 °F 69.8 °F 39% 29.67 in 10.0 mi SSE 12.7 mph - N/A   Clear
5:58 PM 98.2 °F 104.7 °F 69.6 °F 39% 29.67 in 10.0 mi SSE 10.4 mph - N/A   Clear
6:58 PM 96.4 °F 103.0 °F 70.0 °F 42% 29.67 in 10.0 mi SSE 11.5 mph - N/A   Clear
7:58 PM 91.4 °F 97.8 °F 71.1 °F 51% 29.69 in 10.0 mi SE 9.2 mph - N/A   Clear
9:58 PM 86.2 °F 91.8 °F 71.2 °F 61% 29.74 in 10.0 mi SE 9.2 mph - N/A   Clear
10:58 PM 87.8 °F 94.7 °F 72.1 °F 60% 29.74 in 10.0 mi SE 20.7 mph 25.3 mph N/A   Clear
11:58 PM 85.5 °F 93.0 °F 73.9 °F 68% 29.75 in 10.0 mi SSE 18.4 mph 25.3 mph N/A   Clear